Flag for U.S.A. Weather past 2 weeks in Sunrise, Florida, U.S.A.

Now
79 °F

Clear.


Feels Like: 83 °F
Forecast: 78 / 90 °F
Wind: 5 mph from Northwest

Location: Fort Lauderdale Executive Airport

Current Time: Sep 5, 2015 at 1:45:57 AM

Latest Report: Sep 5, 2015 at 12:53 AM


Visibility: 10 mi

Pressure: 29.97 "Hg

Humidity: 84%

Dew point: 74 °F

Location of SunriseLocation

Historic Weather in Sunrise — Graph

°F

Sunrise temperature yesterday

Maximum temperature yesterday: 94 °F (at 1:53 PM)
Minimum temperature yesterday: 74 °F (at 5:02 PM)
Average temperature yesterday: 82 °F

Past Weeks' High & Low Weather Summary

 TemperatureHumidityPressure
High94 °F (Aug 23, 12:53 PM)100% (Aug 27, 5:53 AM)30.11 "Hg (Aug 27, 5:53 AM)
Low74 °F (Aug 30, 4:53 AM)48% (Aug 28, 11:53 AM)29.88 "Hg (Aug 24, 6:53 PM)
Average84 °F75%29.99 "Hg
* Reported Aug 20 11:53 PM — Sep 4 11:53 PM, Sunrise, Weather by CustomWeather, © 2015

Note: Actual official high and low records may vary slightly from our data, if they occured in-between our weather recording intervals... More about our weather records

Advertising

Sunrise weather history for previous 24 hours

 ConditionsComfort  
Time TempWeatherWind HumidityBarometerVisibility
11:53 PM
Fri, Sep 4
79 °FClear.3 mph84%29.98 "Hg10 mi
10:53 PM79 °FClear.3 mph84%29.98 "Hg10 mi
9:53 PM80 °FClear.5 mph79%29.98 "Hg10 mi
8:53 PM79 °FClear.6 mph77%29.96 "Hg10 mi
7:53 PM79 °FBroken clouds.No wind79%29.94 "Hg10 mi
6:53 PM79 °FBroken clouds.8 mph90%29.95 "Hg10 mi
5:53 PM79 °FThunderstorms. Sunny.7 mph90%29.93 "Hg8 mi
5:02 PM74 °FThunderstorms. Mostly cloudy.15 mph94%29.95 "Hg8 mi
3:53 PM86 °FThunderstorms. Mostly cloudy.17 mph80%29.92 "Hg5 mi
2:53 PM90 °FCloudy.9 mph63%29.94 "Hg10 mi
1:53 PM94 °FBroken clouds.6 mph51%29.95 "Hg10 mi
12:53 PM93 °FPassing clouds.5 mph54%29.98 "Hg10 mi
11:53 AM91 °FScattered clouds.5 mph60%29.99 "Hg10 mi
10:53 AM87 °FScattered clouds.6 mph65%30.00 "Hg10 mi
9:53 AM86 °FSunny.6 mph67%29.99 "Hg10 mi
8:53 AM84 °FSunny.6 mph67%29.98 "Hg10 mi
7:53 AM80 °FClear.3 mph87%29.97 "Hg10 mi
6:53 AM78 °FClear.No wind84%29.96 "Hg10 mi
5:53 AM79 °FClear.No wind82%29.94 "Hg10 mi
4:53 AM78 °FClear.3 mph84%29.93 "Hg10 mi
3:53 AM79 °FClear.No wind82%29.92 "Hg10 mi
2:53 AM81 °FClear.No wind74%29.93 "Hg10 mi
1:53 AM80 °FPassing clouds.No wind76%29.94 "Hg10 mi
Weather by CustomWeather, © 2015

See weather overviewHow to use our weather pages